Location: Newark
(31.5350°N, 35.0986°E)
Time: 03:17:22
(UTC+00:00)

Vanguard 1 - Pass Details

Date: 26 September 2019
Orbit: 653 x 3830 km, 34.2° (Epoch: 20 October)

Event Time Altitude Azimuth Distance (km) Brightness Sun altitude
Rises 02:13:11 0° 281° (W) 7,963 - -17.1°
Reaches altitude 10° 02:18:43 10° 282° (WNW) 6,923 - -16.0°
Exits shadow 02:20:18 13° 282° (WNW) 6,620 13.7 -15.6°
Maximum altitude 02:41:46 89° 14° (NNE) 3,006 12.5 -11.1°
Drops below altitude 10° 02:55:34 10° 106° (ESE) 4,482 14.8 -8.2°
Sets 02:58:18 0° 106° (ESE) 5,155 15.3 -7.6°
